This is the latest recevied weather packets stored in our database for station/object CT4TX-6. If no packets are shown the sender has not sent any weather packets the latest 10 day(s).
| Time | Temp. | Humidity | Pressure | Rain* | Wind** | Luminosity | Snow |
|---|---|---|---|---|---|---|---|
| 1787744524 | 25.56° C | 59% | 996.7 hPa | - | - | - | - |
| 1787744499 | 25.56° C | 58% | 996.7 hPa | - | - | - | - |
| 1787744468 | 25.56° C | 59% | 996.8 hPa | - | - | - | - |
| 1787744445 | 25.56° C | 58% | 996.7 hPa | - | - | - | - |
| 1787744371 | 25.56° C | 58% | 996.8 hPa | - | - | - | - |
| 1787744335 | 25.56° C | 59% | 996.8 hPa | - | - | - | - |
| 1787744307 | 25.56° C | 58% | 996.8 hPa | - | - | - | - |
| 1787743732 | 26.11° C | 58% | 996.1 hPa | - | - | - | - |
| 1787742833 | 26.11° C | 56% | 996.5 hPa | - | - | - | - |
| 1787741931 | 26.67° C | 57% | 996.9 hPa | - | - | - | - |
| 1787741031 | 26.11° C | 58% | 997.5 hPa | - | - | - | - |
| 1787740131 | 26.11° C | 56% | 997.4 hPa | - | - | - | - |
| 1787739231 | 25.56° C | 58% | 997.6 hPa | - | - | - | - |
| 1787738330 | 26.11° C | 56% | 997.6 hPa | - | - | - | - |
| 1787737430 | 26.67° C | 55% | 997.5 hPa | - | - | - | - |
| 1787736529 | 25.56° C | 57% | 997.4 hPa | - | - | - | - |
| 1787736476 | 25.56° C | 57% | 997.4 hPa | - | - | - | - |
| 1787736451 | 25.56° C | 57% | 997.5 hPa | - | - | - | - |
| 1787736380 | 25.56° C | 57% | 997.4 hPa | - | - | - | - |
| 1787736325 | 25.56° C | 57% | 997.4 hPa | - | - | - | - |
| 1787736260 | 25.56° C | 57% | 997.4 hPa | - | - | - | - |
| 1787736200 | 25.56° C | 57% | 997.4 hPa | - | - | - | - |
| 1787736165 | 25.56° C | 57% | 997.4 hPa | - | - | - | - |
| 1787736116 | 25.56° C | 57% | 997.4 hPa | - | - | - | - |
| 1787736065 | 25.56° C | 57% | 997.4 hPa | - | - | - | - |
* Rain since midnight (hover to see other rain measurements)
** Current wind speed in m/s (hover to see current wind gust speed)